Location: Unspecified
(44.1833°N, 0.0000°E)
Time: 09:54:48
(UTC+00:00)

FENGYUN 1C DEB - Visible Passes

Search period start: 04 April 2026 00:00
Search period end: 14 April 2026 00:00
Orbit: 784 x 825 km, 98.7° (Epoch: 29 March)

Date Brightness Start Highest point End Pass type
(mag) Time Alt. Az. Time Alt. Az. Time Alt. Az.
4 Apr ? 20:52:03 48° ENE 20:52:03 48° ENE 20:57:02 10° N visible
4 Apr ? 22:33:05 21° WNW 22:33:05 21° WNW 22:36:05 10° NW visible
5 Apr ? 20:26:20 29° ENE 20:26:55 30° ENE 20:31:22 10° N visible
5 Apr ? 22:07:21 35° WNW 22:07:21 35° WNW 22:11:21 10° NNW visible
6 Apr ? 20:00:36 17° E 20:01:52 19° ENE 20:05:24 10° NNE visible
6 Apr ? 21:41:38 60° WNW 21:41:38 60° WNW 21:46:17 10° NNW visible
7 Apr ? 19:35:06 10° ENE 19:36:54 12° NE 19:38:43 10° NE visible
7 Apr ? 21:15:54 78° ENE 21:15:54 78° ENE 21:21:00 10° NNW visible
7 Apr ? 22:56:55 13° W 22:56:55 13° W 22:58:42 10° WNW visible
8 Apr ? 20:50:10 46° E 20:50:33 47° ENE 20:55:30 10° N visible
8 Apr ? 22:31:11 23° W 22:31:11 23° W 22:34:38 10° NW visible
9 Apr ? 20:24:25 27° E 20:25:24 29° ENE 20:29:48 10° N visible
9 Apr ? 22:05:26 38° W 22:05:26 38° W 22:09:51 10° NNW visible
10 Apr ? 19:58:40 16° E 20:00:21 18° ENE 20:03:48 10° NNE visible
10 Apr ? 21:39:41 65° W 21:39:41 65° W 21:44:45 10° NNW visible
11 Apr ? 19:33:46 10° ENE 19:35:22 11° NE 19:36:58 10° NE visible
11 Apr ? 21:13:56 73° ESE 21:14:14 75° ENE 21:19:25 10° N visible
11 Apr ? 22:54:57 14° W 22:54:57 14° W 22:57:16 10° WNW visible
12 Apr ? 20:48:11 42° E 20:48:58 45° ENE 20:53:54 10° N visible
12 Apr ? 22:29:12 24° W 22:29:12 24° W 22:33:06 10° NW visible
13 Apr ? 20:22:26 25° E 20:23:48 28° ENE 20:28:09 10° N visible
13 Apr ? 22:03:27 40° W 22:03:27 40° W 22:08:16 10° NNW visible
